,,PA_Meas_PMT16A,,PR_Meas_QMR101_102,,RH_Meas_QMH101,,SR_Meas_QMS101,,TA_Meas_QMH101,,GenWind,,GenWind,
time,status,PA,status,PR,status,RH,status,SR,status,TA,status,DirAvg,status,SpdAvg,
2016-04-12, 07:58:04,VALID,919.212,VALID,0,VALID,104,VALID,99.4905,VALID,20.1513,VALID,29,VALID,0.860937,
2016-04-12, 08:01:04,VALID,919.258,VALID,0,VALID,104,VALID,114.962,VALID,20.1919,VALID,339,VALID,1.24023,
2016-04-12, 08:02:04,VALID,919.242,VALID,0,VALID,104,VALID,106.474,VALID,20.1903,VALID,345,VALID,0,
2016-04-12, 08:04:04,VALID,919.279,VALID,0,VALID,104,VALID,120.979,VALID,20.2489,VALID,42,VALID,0,
2016-04-12, 08:05:04,VALID,919.278,VALID,0,VALID,104,VALID,116.896,VALID,20.2863,VALID,31,VALID,0,
2016-04-12, 08:07:04,VALID,919.285,VALID,0,VALID,104,VALID,116.359,VALID,20.4244,VALID,41,VALID,0,
2016-04-12, 08:08:04,VALID,919.272,VALID,0,VALID,104,VALID,116.574,VALID,20.4845,VALID,41,VALID,0,
2016-04-12, 08:11:04,VALID,919.292,VALID,0,VALID,104,VALID,116.251,VALID,20.465,VALID,9,VALID,0,
2016-04-12, 08:12:04,VALID,919.296,VALID,0,VALID,104,VALID,122.698,VALID,20.5219,VALID,12,VALID,0,
2016-04-12, 08:13:04,VALID,919.305,VALID,0,VALID,104,VALID,120.764,VALID,20.5024,VALID,11,VALID,0,
2016-04-12, 08:14:04,VALID,919.351,VALID,0,VALID,104,VALID,108.086,VALID,20.5414,VALID,11,VALID,0,
2016-04-12, 08:15:04,VALID,919.311,VALID,0,VALID,104,VALID,100.135,VALID,20.5024,VALID,42,VALID,0,
2016-04-12, 08:19:04,VALID,919.304,VALID,0,VALID,104,VALID,113.78,VALID,20.5625,VALID,14,VALID,0.0425781,
2016-04-12, 08:24:04,VALID,919.294,VALID,0,VALID,104,VALID,105.292,VALID,20.5414,VALID,16,VALID,0.580859,
2016-04-12, 08:30:04,VALID,919.31,VALID,0,VALID,104,VALID,119.475,VALID,20.5609,VALID,29,VALID,1.07148,
2016-04-12, 08:31:04,VALID,919.346,VALID,0,VALID,104,VALID,127.318,VALID,20.5999,VALID,32,VALID,0.897656,
2016-04-12, 08:32:04,VALID,919.352,VALID,0,VALID,104,VALID,132.26,VALID,20.5204,INVALID,360,VALID,0.246094,
2016-04-12, 08:33:04,VALID,919.329,VALID,0,VALID,104,VALID,133.549,VALID,20.5609,VALID,344,VALID,0,
2016-04-12, 08:34:04,VALID,919.332,VALID,0,VALID,104,VALID,130.648,VALID,20.4439,VALID,282,VALID,0,
2016-04-12, 08:35:04,VALID,919.323,VALID,0,VALID,104,VALID,132.797,VALID,20.5219,VALID,12,VALID,0,
2016-04-12, 08:36:04,VALID,919.312,VALID,0,VALID,104,VALID,145.475,VALID,20.5024,VALID,5,VALID,0,
2016-04-12, 08:37:04,VALID,919.344,VALID,0,VALID,104,VALID,159.228,VALID,20.4634,VALID,5,VALID,0,
2016-04-12, 08:38:04,VALID,919.32,VALID,0,VALID,104,VALID,161.162,VALID,20.5024,VALID,20,VALID,0,
2016-04-12, 08:39:04,VALID,919.3,VALID,0,VALID,104,VALID,159.335,VALID,20.5789,VALID,2,VALID,0,
2016-04-12, 08:40:04,VALID,919.313,VALID,0,VALID,104,VALID,157.938,VALID,20.5999,VALID,360,VALID,0,
2016-04-12, 08:41:04,VALID,919.339,VALID,0,VALID,104,VALID,154.608,VALID,20.639,VALID,360,VALID,0,
2016-04-12, 08:42:04,VALID,919.354,VALID,0,VALID,104,VALID,152.459,VALID,20.7154,VALID,360,VALID,0,
2016-04-12, 08:43:04,VALID,919.341,VALID,0,VALID,104,VALID,156.327,VALID,20.756,VALID,360,VALID,0,
2016-04-12, 08:44:04,VALID,919.384,VALID,0,VALID,104,VALID,153.856,VALID,20.7934,VALID,360,VALID,0,
2016-04-12, 08:45:04,VALID,919.328,VALID,0,VALID,104,VALID,152.566,VALID,20.795,VALID,22,VALID,0,
2016-04-12, 08:46:04,VALID,919.307,VALID,0,VALID,104,VALID,149.558,VALID,20.717,VALID,344,VALID,0,
2016-04-12, 08:47:04,VALID,919.291,VALID,0,VALID,104,VALID,152.674,VALID,20.678,VALID,10,VALID,0,
2016-04-12, 08:48:04,VALID,919.265,VALID,0,VALID,104,VALID,156.864,VALID,20.678,VALID,5,VALID,0,
2016-04-12, 08:49:04,VALID,919.284,VALID,0,VALID,104,VALID,167.286,VALID,20.7365,VALID,9,VALID,0,
2016-04-12, 08:50:04,VALID,919.255,VALID,0,VALID,104,VALID,172.873,VALID,20.795,VALID,29,VALID,0,
2016-04-12, 08:51:04,VALID,919.283,VALID,0,VALID,104,VALID,176.956,VALID,20.8324,VALID,352,VALID,0,
2016-04-12, 08:52:04,VALID,919.254,VALID,0,VALID,104,VALID,178.245,VALID,20.834,VALID,10,VALID,0,
2016-04-12, 08:53:04,VALID,919.273,VALID,0,VALID,104,VALID,178.675,VALID,20.8324,VALID,5,VALID,0,
2016-04-12, 08:54:04,VALID,919.277,VALID,0,VALID,104,VALID,185.658,VALID,20.912,VALID,353,VALID,0,
2016-04-12, 08:55:04,VALID,919.302,VALID,0,VALID,104,VALID,190.386,VALID,20.9495,VALID,8,VALID,0,
2016-04-12, 08:56:04,VALID,919.343,VALID,0,VALID,104,VALID,186.518,VALID,20.9316,VALID,8,VALID,0,
2016-04-12, 08:57:04,VALID,919.343,VALID,0,VALID,104,VALID,176.741,VALID,20.8925,VALID,335,VALID,0,
2016-04-12, 08:58:04,VALID,919.359,VALID,0,VALID,104,VALID,160.625,VALID,20.8925,VALID,17,VALID,0,
2016-04-12, 08:59:04,VALID,919.36,VALID,0,VALID,104,VALID,150.74,VALID,20.9495,VALID,23,VALID,0,
2016-04-12, 09:00:04,VALID,919.369,VALID,0,VALID,104,VALID,144.186,VALID,21.008,VALID,17,VALID,0,
2016-04-12, 09:01:04,VALID,919.343,VALID,0,VALID,104,VALID,139.029,VALID,21.047,VALID,24,VALID,0,
2016-04-12, 09:02:04,VALID,919.337,VALID,0,VALID,104,VALID,138.277,VALID,21.1657,VALID,41,VALID,0,
2016-04-12, 09:03:04,VALID,919.398,VALID,0,VALID,104,VALID,136.773,VALID,21.1657,VALID,32,VALID,0,
2016-04-12, 09:04:04,VALID,919.38,VALID,0,VALID,104,VALID,132.153,VALID,21.0876,VALID,2,VALID,0,
2016-04-12, 09:05:04,VALID,919.407,VALID,0,VALID,104,VALID,131.938,VALID,21.0681,VALID,4,VALID,0,
2016-04-12, 09:06:04,VALID,919.385,VALID,0,VALID,104,VALID,133.12,VALID,21.0681,VALID,7,VALID,0,
2016-04-12, 09:07:04,VALID,919.385,VALID,0,VALID,104,VALID,132.69,VALID,21.0665,VALID,7,VALID,0,
2016-04-12, 09:08:04,VALID,919.36,VALID,0,VALID,104,VALID,133.764,VALID,21.0665,VALID,322,VALID,0,
2016-04-12, 09:09:04,VALID,919.35,VALID,0,INVALID,109.236,VALID,142.467,VALID,20.9706,VALID,291,VALID,0,
2016-04-12, 09:10:04,VALID,919.344,VALID,0,INVALID,109.282,VALID,159.013,VALID,20.969,VALID,292,VALID,0,
2016-04-12, 09:11:04,VALID,919.34,VALID,0,INVALID,109.305,VALID,170.724,VALID,21.0275,VALID,292,VALID,0,
2016-04-12, 09:12:04,VALID,919.341,VALID,0,INVALID,109.35,VALID,168.897,VALID,21.1055,VALID,312,VALID,0,
2016-04-12, 09:13:04,VALID,919.316,VALID,0,INVALID,109.366,VALID,168.897,VALID,21.164,VALID,315,VALID,0,
2016-04-12, 09:14:04,VALID,919.34,VALID,0,INVALID,109.381,VALID,172.658,VALID,21.2616,VALID,330,VALID,0,
2016-04-12, 09:15:04,VALID,919.34,VALID,0,INVALID,109.556,VALID,187.485,VALID,21.2827,VALID,17,VALID,0,
2016-04-12, 09:16:04,VALID,919.357,VALID,0,INVALID,109.648,VALID,204.461,VALID,21.3217,VALID,8,VALID,0,
2016-04-12, 09:17:04,VALID,919.325,VALID,0,INVALID,109.998,VALID,209.618,VALID,21.2437,VALID,35,VALID,0,
2016-04-12, 09:18:04,VALID,919.336,VALID,0,INVALID,110.052,VALID,216.924,VALID,21.2827,VALID,355,VALID,0,
2016-04-12, 09:19:04,VALID,919.327,VALID,0,INVALID,110.105,VALID,226.701,VALID,21.3803,VALID,357,VALID,0,
2016-04-12, 09:20:04,VALID,919.292,VALID,0,INVALID,110.334,VALID,226.164,VALID,21.3591,VALID,5,VALID,0,
2016-04-12, 09:21:04,VALID,919.343,VALID,0,INVALID,110.425,VALID,223.478,VALID,21.3998,VALID,9,VALID,0,
2016-04-12, 09:22:04,VALID,919.329,VALID,0,INVALID,110.532,VALID,224.659,VALID,21.4567,VALID,16,VALID,0,
2016-04-12, 09:23:04,VALID,919.339,VALID,0,INVALID,110.623,VALID,227.131,VALID,21.4372,VALID,349,VALID,0,
2016-04-12, 09:24:04,VALID,919.316,VALID,0,INVALID,110.593,VALID,233.362,VALID,21.4762,VALID,34,VALID,0,
2016-04-12, 09:25:04,VALID,919.292,VALID,0,INVALID,110.631,VALID,236.478,VALID,21.4973,VALID,2,VALID,0.791406,
2016-04-12, 09:26:04,VALID,919.289,VALID,0,INVALID,110.471,VALID,235.833,VALID,21.4583,VALID,281,VALID,0.0195313,
2016-04-12, 09:27:04,VALID,919.281,VALID,0,INVALID,110.418,VALID,241.743,VALID,21.4762,VALID,281,VALID,0,
2016-04-12, 09:28:04,VALID,919.249,VALID,0,INVALID,110.402,VALID,246.9,VALID,21.5152,VALID,1,VALID,0.432422,
2016-04-12, 09:29:04,VALID,919.262,VALID,0,INVALID,110.303,VALID,250.445,VALID,21.5526,VALID,5,VALID,0,
2016-04-12, 09:30:04,VALID,919.287,VALID,0,INVALID,110.227,VALID,254.958,VALID,21.6128,VALID,349,VALID,0,
2016-04-12, 09:31:04,VALID,919.264,VALID,0,INVALID,110.242,VALID,250.123,VALID,21.6908,INVALID,360,VALID,0,
2016-04-12, 09:32:04,VALID,919.259,VALID,0,INVALID,109.983,VALID,260.975,VALID,21.6306,VALID,326,VALID,0,
2016-04-12, 09:33:04,VALID,919.267,VALID,0,INVALID,109.282,VALID,270.859,VALID,21.6128,VALID,352,VALID,0,
2016-04-12, 09:34:04,VALID,919.276,VALID,0,INVALID,109.289,VALID,273.653,VALID,21.6713,VALID,19,VALID,0,
2016-04-12, 09:35:04,VALID,919.278,VALID,0,INVALID,109.51,VALID,271.719,VALID,21.7282,VALID,24,VALID,0,
2016-04-12, 09:36:04,VALID,919.247,VALID,0,INVALID,109.602,VALID,274.19,VALID,21.7883,VALID,27,VALID,0,
2016-04-12, 09:37:04,VALID,919.235,VALID,0,INVALID,109.625,VALID,274.19,VALID,21.8452,VALID,352,VALID,0,
2016-04-12, 09:38:04,VALID,919.229,VALID,0,INVALID,109.518,VALID,270.644,VALID,21.8842,VALID,10,VALID,0,
2016-04-12, 09:39:04,VALID,919.241,VALID,0,INVALID,109.19,VALID,275.049,VALID,21.9038,VALID,17,VALID,0,
2016-04-12, 09:40:04,VALID,919.206,VALID,0,VALID,104,VALID,285.793,VALID,21.9233,VALID,348,VALID,0,
2016-04-12, 09:41:04,VALID,919.201,VALID,0,INVALID,109.114,VALID,294.711,VALID,21.9818,VALID,29,VALID,0,
2016-04-12, 09:42:04,VALID,919.19,VALID,0,INVALID,109.35,VALID,293.529,VALID,22.0403,VALID,18,VALID,0,
2016-04-12, 09:43:04,VALID,919.171,VALID,0,INVALID,109.221,VALID,296.108,VALID,22.0794,VALID,356,VALID,0,
2016-04-12, 09:44:04,VALID,919.17,VALID,0,VALID,104,VALID,293.422,VALID,22.081,VALID,7,VALID,0,
2016-04-12, 09:45:04,VALID,919.188,VALID,0,VALID,104,VALID,284.504,VALID,22.042,VALID,47,VALID,0,
2016-04-12, 09:46:04,VALID,919.216,VALID,0,VALID,104,VALID,292.562,VALID,22.1201,VALID,14,VALID,0.923047,
2016-04-12, 09:47:04,VALID,919.204,VALID,0,INVALID,109.038,VALID,301.695,VALID,22.1964,VALID,13,VALID,0,
2016-04-12, 09:48:04,VALID,919.228,VALID,0,VALID,104,VALID,304.918,VALID,22.255,VALID,13,VALID,0,
2016-04-12, 09:49:04,VALID,919.191,VALID,0,VALID,104,VALID,307.711,VALID,22.255,VALID,4,VALID,0,
2016-04-12, 09:50:04,VALID,919.158,VALID,0,VALID,104,VALID,312.546,VALID,22.3542,VALID,68,VALID,0,
2016-04-12, 09:51:04,VALID,919.185,VALID,0,VALID,104,VALID,317.703,VALID,22.3525,VALID,13,VALID,0,
2016-04-12, 09:52:04,VALID,919.235,VALID,0,VALID,104,VALID,317.381,VALID,22.3933,VALID,357,VALID,0,
2016-04-12, 09:53:04,VALID,919.218,VALID,0,VALID,104,VALID,316.629,VALID,22.3916,VALID,42,VALID,0,
2016-04-12, 09:54:04,VALID,919.237,VALID,0,VALID,104,VALID,321.571,VALID,22.4518,VALID,39,VALID,0,
2016-04-12, 09:55:04,VALID,919.237,VALID,0,VALID,104,VALID,326.621,VALID,22.5281,VALID,3,VALID,0,
2016-04-12, 09:56:04,VALID,919.254,VALID,0,VALID,104,VALID,332.101,VALID,22.5867,VALID,333,VALID,0,
2016-04-12, 09:57:04,VALID,919.24,VALID,0,VALID,103.953,VALID,338.332,VALID,22.4094,VALID,327,VALID,0,
2016-04-12, 09:58:04,VALID,919.247,VALID,0,VALID,104,VALID,342.522,VALID,22.4111,VALID,28,VALID,0,
2016-04-12, 09:59:04,VALID,919.274,VALID,0,VALID,104,VALID,346.82,VALID,22.4306,VALID,26,VALID,0,
2016-04-12, 10:00:04,VALID,919.267,VALID,0,VALID,104,VALID,353.052,VALID,22.5281,VALID,343,VALID,0,
2016-04-12, 10:01:04,VALID,919.266,VALID,0,VALID,104,VALID,359.283,VALID,22.5477,VALID,345,VALID,0,
2016-04-12, 10:02:04,VALID,919.211,VALID,0,VALID,104,VALID,378.623,VALID,22.6062,VALID,357,VALID,0,
2016-04-12, 10:03:04,VALID,919.175,VALID,0,VALID,104,VALID,387.755,VALID,22.5672,VALID,358,VALID,0,
2016-04-12, 10:04:04,VALID,919.184,VALID,0,VALID,104,VALID,402.797,VALID,22.5655,VALID,30,VALID,0.250391,
2016-04-12, 10:05:04,VALID,919.164,VALID,0,VALID,103.099,VALID,400.541,VALID,22.4484,VALID,5,VALID,0.0195313,
2016-04-12, 10:06:04,VALID,919.149,VALID,0,VALID,104,VALID,399.681,VALID,22.3508,VALID,29,VALID,0.979297,
2016-04-12, 10:07:04,VALID,919.139,VALID,0,VALID,104,VALID,387.648,VALID,22.3899,VALID,350,VALID,0,
2016-04-12, 10:08:04,VALID,919.148,VALID,0,VALID,104,VALID,387.863,VALID,22.3703,VALID,358,VALID,1.00039,
2016-04-12, 10:09:04,VALID,919.154,VALID,0,VALID,104,VALID,388.722,VALID,22.3899,VALID,334,VALID,0,
2016-04-12, 10:10:04,VALID,919.138,VALID,0,VALID,104,VALID,394.631,VALID,22.4289,VALID,354,VALID,0,
2016-04-12, 10:11:04,VALID,919.111,VALID,0,VALID,104,VALID,394.846,VALID,22.4891,VALID,26,VALID,1.60352,
2016-04-12, 10:12:04,VALID,919.112,VALID,0,VALID,104,VALID,402.152,VALID,22.4874,VALID,8,VALID,0,
2016-04-12, 10:13:04,VALID,919.07,VALID,0,VALID,104,VALID,413.863,VALID,22.6045,VALID,27,VALID,0.120312,
2016-04-12, 10:14:04,VALID,919.05,VALID,0,VALID,104,VALID,419.235,VALID,22.663,VALID,37,VALID,0.585547,
2016-04-12, 10:15:04,VALID,919.059,VALID,0,VALID,104,VALID,420.525,VALID,22.7623,VALID,352,VALID,0.00585938,
2016-04-12, 10:16:04,VALID,919.064,VALID,0,VALID,104,VALID,420.74,VALID,22.8794,VALID,18,VALID,0,
2016-04-12, 10:17:04,VALID,919.062,VALID,0,VALID,104,VALID,419.45,VALID,22.9575,VALID,32,VALID,0.542188,
2016-04-12, 10:18:04,VALID,919.041,VALID,0,VALID,104,VALID,420.095,VALID,23.1331,VALID,31,VALID,0,
2016-04-12, 10:19:04,VALID,919.01,VALID,0,VALID,99.8363,VALID,429.12,VALID,23.2112,VALID,23,VALID,0,
2016-04-12, 10:20:04,VALID,919.012,VALID,0,VALID,100.843,VALID,432.773,VALID,23.2307,VALID,45,VALID,0,
2016-04-12, 10:21:04,VALID,919.01,VALID,0,VALID,102.649,VALID,421.599,VALID,23.3088,VALID,16,VALID,0,
2016-04-12, 10:22:04,VALID,919.041,VALID,0,VALID,102.901,VALID,459.956,VALID,23.3461,VALID,351,VALID,0,
2016-04-12, 10:23:04,VALID,919.039,VALID,0,VALID,99.821,VALID,481.014,VALID,23.3283,VALID,279,VALID,0,
2016-04-12, 10:24:04,VALID,918.985,VALID,0,VALID,101.491,VALID,499.709,VALID,23.2485,VALID,321,VALID,0,
2016-04-12, 10:25:04,VALID,919.004,VALID,0,VALID,102.931,VALID,494.337,VALID,23.3265,VALID,28,VALID,0,
2016-04-12, 10:26:04,VALID,919,VALID,0,VALID,102.154,VALID,510.775,VALID,23.5022,VALID,250,VALID,0,
2016-04-12, 10:27:04,VALID,919.034,VALID,0,VALID,99.8363,VALID,507.659,VALID,23.6974,VALID,10,VALID,0.717969,
2016-04-12, 10:28:04,VALID,919.023,VALID,0,VALID,81.1284,VALID,507.23,VALID,23.5998,VALID,17,VALID,0.117188,
2016-04-12, 10:29:04,VALID,919.021,VALID,0,VALID,89.3388,VALID,477.576,VALID,23.5608,VALID,10,VALID,0.000390625,
2016-04-12, 10:30:04,VALID,919.004,VALID,0,VALID,98.8071,VALID,493.692,VALID,23.6193,VALID,27,VALID,0,
2016-04-12, 10:31:04,VALID,919.021,VALID,0,VALID,98.0905,VALID,488.535,VALID,23.7755,VALID,341,VALID,0,
2016-04-12, 10:32:04,VALID,918.996,VALID,0,VALID,94.5685,VALID,509.808,VALID,23.8536,VALID,8,VALID,0.0398437,
2016-04-12, 10:33:04,VALID,918.994,VALID,0,VALID,96.9089,VALID,553,VALID,24.0097,VALID,42,VALID,0,
2016-04-12, 10:34:04,VALID,919.01,VALID,0,VALID,92.5178,VALID,639.49,VALID,24.2049,VALID,39,VALID,0,
2016-04-12, 10:35:04,VALID,918.989,VALID,0,VALID,85.6033,VALID,662.16,VALID,24.3611,VALID,333,VALID,0,
2016-04-12, 10:36:04,VALID,918.986,VALID,0,VALID,78.5745,VALID,674.516,VALID,24.4392,VALID,337,VALID,0,
2016-04-12, 10:37:04,VALID,918.961,VALID,0,VALID,80.3279,VALID,582.868,VALID,24.5759,VALID,17,VALID,0,
2016-04-12, 10:38:04,VALID,918.969,VALID,0,VALID,79.1387,VALID,636.911,VALID,24.7907,VALID,24,VALID,0,
2016-04-12, 10:39:04,VALID,919.002,VALID,0,VALID,77.4082,VALID,658.829,VALID,24.9664,VALID,339,VALID,0,
2016-04-12, 10:40:04,VALID,918.958,VALID,0,VALID,75.9673,VALID,619.076,VALID,24.8883,VALID,269,VALID,0,
2016-04-12, 10:41:04,VALID,918.963,VALID,0,VALID,75.8149,VALID,619.613,VALID,24.8688,VALID,228,VALID,0,
2016-04-12, 10:42:04,VALID,918.924,VALID,0,VALID,78.7575,VALID,648.73,VALID,24.8669,VALID,310,VALID,0,
2016-04-12, 10:43:04,VALID,918.935,VALID,0,VALID,78.3154,VALID,628.208,VALID,24.7888,VALID,256,VALID,0.251953,
2016-04-12, 10:44:04,VALID,918.912,VALID,0,VALID,77.37,VALID,656.68,VALID,24.654,VALID,271,VALID,0.00117188,
2016-04-12, 10:45:04,VALID,918.906,VALID,0,VALID,75.5099,VALID,741.989,VALID,24.535,VALID,255,VALID,0,
2016-04-12, 10:46:04,VALID,918.876,VALID,0,VALID,73.6041,VALID,680.532,VALID,24.3398,VALID,249,VALID,0,
2016-04-12, 10:47:04,VALID,918.883,VALID,0,VALID,74.1835,VALID,691.491,VALID,24.3416,VALID,262,VALID,0,
2016-04-12, 10:48:04,VALID,918.857,VALID,0,VALID,73.4974,VALID,757.568,VALID,24.4783,VALID,217,VALID,0,
2016-04-12, 10:49:04,VALID,918.833,VALID,0,VALID,75.6014,VALID,890.795,VALID,24.7516,VALID,316,VALID,0.190234,
2016-04-12, 10:50:04,VALID,918.847,VALID,0,VALID,74.8162,VALID,768.419,VALID,24.8297,VALID,44,VALID,0,
2016-04-12, 10:51:04,VALID,918.837,VALID,0,VALID,74.0539,VALID,816.338,VALID,24.9469,VALID,327,VALID,0,
2016-04-12, 10:52:04,VALID,918.827,VALID,0,VALID,73.2077,VALID,793.131,VALID,25.1226,VALID,242,VALID,0.11875,
2016-04-12, 10:53:04,VALID,918.798,VALID,0,VALID,73.8175,VALID,874.571,VALID,25.0836,VALID,255,VALID,1.21016,
2016-04-12, 10:54:04,VALID,918.821,VALID,0,VALID,75.7386,VALID,716.633,VALID,24.8688,VALID,283,VALID,0,
2016-04-12, 10:55:04,VALID,918.816,VALID,0,VALID,73.4974,VALID,741.129,VALID,24.945,VALID,303,VALID,0,
2016-04-12, 10:56:04,VALID,918.786,VALID,0,VALID,72.2166,VALID,723.509,VALID,24.9859,VALID,253,VALID,0,
2016-04-12, 10:57:04,VALID,918.775,VALID,0,VALID,71.378,VALID,737.583,VALID,24.9059,VALID,233,VALID,0,
2016-04-12, 10:58:04,VALID,918.789,VALID,0,VALID,71.4162,VALID,723.724,VALID,24.9664,VALID,241,VALID,0,
2016-04-12, 10:59:04,VALID,918.771,VALID,0,VALID,74.0462,VALID,649.911,VALID,25.1226,VALID,279,VALID,0,
2016-04-12, 11:00:04,VALID,918.755,VALID,0,VALID,74.2749,VALID,682.789,VALID,25.2203,VALID,323,VALID,0,
2016-04-12, 11:01:04,VALID,918.784,VALID,0,VALID,73.3601,VALID,630.894,VALID,25.3941,VALID,306,VALID,0,
2016-04-12, 11:02:04,VALID,918.732,VALID,0,VALID,70.7301,VALID,619.935,VALID,25.5113,VALID,325,VALID,0,
2016-04-12, 11:03:04,VALID,918.756,VALID,0,VALID,72.3615,VALID,627.027,VALID,25.5308,VALID,300,VALID,0,
2016-04-12, 11:04:04,VALID,918.714,VALID,0,VALID,66.2017,VALID,609.729,VALID,25.5523,VALID,357,VALID,0,
2016-04-12, 11:05:04,VALID,918.667,VALID,0,VALID,68.3363,VALID,583.298,VALID,25.6089,VALID,305,VALID,0,
2016-04-12, 11:06:04,VALID,918.658,VALID,0,VALID,68.9233,VALID,594.257,VALID,25.687,VALID,127,VALID,0,
2016-04-12, 11:07:04,VALID,918.644,VALID,0,VALID,69.0453,VALID,640.349,VALID,25.7066,VALID,208,VALID,0,
2016-04-12, 11:08:04,VALID,918.654,VALID,0,VALID,72.4834,VALID,609.299,VALID,25.7261,VALID,270,VALID,0,
2016-04-12, 11:09:04,VALID,918.612,VALID,0,VALID,69.0529,VALID,593.612,VALID,25.7456,VALID,290,VALID,0,
2016-04-12, 11:10:04,VALID,918.599,VALID,0,VALID,70.9206,VALID,603.39,VALID,25.8237,VALID,313,VALID,0,
2016-04-12, 11:11:04,VALID,918.603,VALID,0,VALID,68.9767,VALID,588.455,VALID,26.019,VALID,5,VALID,0,
2016-04-12, 11:12:04,VALID,918.534,VALID,0,VALID,67.0937,VALID,712.765,VALID,26.1362,VALID,328,VALID,0,
2016-04-12, 11:13:04,VALID,918.524,VALID,0,VALID,65.9121,VALID,698.69,VALID,25.9214,VALID,269,VALID,0.13125,
2016-04-12, 11:14:04,VALID,918.498,VALID,0,VALID,69.8762,VALID,743.815,VALID,25.8042,VALID,322,VALID,0,
2016-04-12, 11:15:04,VALID,918.458,VALID,0,VALID,68.9386,VALID,741.989,VALID,25.7847,VALID,6,VALID,0.0386719,
2016-04-12, 11:16:04,VALID,918.454,VALID,0,VALID,73.383,VALID,781.957,VALID,25.7632,VALID,7,VALID,0,
2016-04-12, 11:17:04,VALID,918.447,VALID,0,VALID,69.4112,VALID,808.28,VALID,25.9409,VALID,358,VALID,0.00820312,
2016-04-12, 11:18:04,VALID,918.446,VALID,0,VALID,69.1063,VALID,782.816,VALID,26.0776,VALID,39,VALID,0,
2016-04-12, 11:19:04,VALID,918.425,VALID,0,VALID,68.2143,VALID,780.56,VALID,26.2534,VALID,44,VALID,0,
2016-04-12, 11:20:04,VALID,918.416,VALID,0,VALID,63.6403,VALID,658.185,VALID,26.4663,VALID,44,VALID,0.00429688,
2016-04-12, 11:21:04,VALID,918.384,VALID,0,VALID,63.7546,VALID,634.333,VALID,26.6636,VALID,69,VALID,0,
2016-04-12, 11:22:04,VALID,918.386,VALID,0,VALID,64.3416,VALID,616.712,VALID,26.7788,VALID,70,VALID,0,
2016-04-12, 11:23:04,VALID,918.348,VALID,0,VALID,61.3533,VALID,594.687,VALID,26.896,VALID,44,VALID,0,
2016-04-12, 11:24:04,VALID,918.296,VALID,0,VALID,62.7407,VALID,600.918,VALID,26.8765,VALID,45,VALID,1.00312,
2016-04-12, 11:25:04,VALID,918.291,VALID,0,VALID,67.2614,VALID,626.06,VALID,26.5835,VALID,38,VALID,0.255859,
2016-04-12, 11:26:04,VALID,918.254,VALID,0,VALID,67.4672,VALID,674.838,VALID,26.4663,VALID,49,VALID,0.208984,
2016-04-12, 11:27:04,VALID,918.254,VALID,0,VALID,66.9717,VALID,695.252,VALID,26.5054,VALID,357,VALID,0,
2016-04-12, 11:28:04,VALID,918.24,VALID,0,VALID,68.443,VALID,785.287,VALID,26.6812,VALID,13,VALID,0,
2016-04-12, 11:29:04,VALID,918.203,VALID,0,VALID,67.8636,VALID,716.418,VALID,26.7398,VALID,47,VALID,1.09687,
2016-04-12, 11:30:04,VALID,918.172,VALID,0,VALID,66.1255,VALID,689.45,VALID,26.8785,VALID,52,VALID,0,
2016-04-12, 11:31:04,VALID,918.163,VALID,0,VALID,65.6529,VALID,704.707,VALID,26.9742,VALID,42,VALID,0,
2016-04-12, 11:32:04,VALID,918.174,VALID,0,VALID,66.1865,VALID,690.524,VALID,27.2107,VALID,22,VALID,0,
2016-04-12, 11:33:04,VALID,918.152,VALID,0,VALID,65.0506,VALID,792.378,VALID,27.1716,VALID,23,VALID,0,
2016-04-12, 11:34:04,VALID,918.127,VALID,0,VALID,64.7685,VALID,738.013,VALID,27.15,VALID,24,VALID,1.3293,
2016-04-12, 11:35:04,VALID,918.136,VALID,0,VALID,60.2784,VALID,672.259,VALID,27.1325,VALID,334,VALID,0,
2016-04-12, 11:36:04,VALID,918.147,VALID,0,VALID,62.2299,VALID,672.474,VALID,27.1325,VALID,344,VALID,0,
2016-04-12, 11:37:04,VALID,918.08,VALID,0,VALID,64.0062,VALID,648.73,VALID,27.2477,VALID,344,VALID,0,
2016-04-12, 11:38:04,VALID,918.072,VALID,0,VALID,60.6748,VALID,721.575,VALID,27.3084,VALID,324,VALID,0,
2016-04-12, 11:39:04,VALID,918.043,VALID,0,VALID,61.2389,VALID,886.282,VALID,27.2281,VALID,263,VALID,0,
2016-04-12, 11:40:04,VALID,918.033,VALID,0,VALID,63.1448,VALID,722.327,VALID,27.3084,VALID,43,VALID,0.160938,
2016-04-12, 11:41:04,VALID,918.048,VALID,0,VALID,58.9595,VALID,759.179,VALID,27.4256,VALID,23,VALID,0.328516,
2016-04-12, 11:42:04,VALID,918.039,VALID,0,VALID,60.2631,VALID,668.177,VALID,27.3865,VALID,23,VALID,0,
2016-04-12, 11:43:04,VALID,918.057,VALID,0,VALID,61.7802,VALID,776.047,VALID,27.4647,VALID,23,VALID,0,
2016-04-12, 11:44:04,VALID,918.007,VALID,0,VALID,58.7994,VALID,601.456,VALID,27.5233,VALID,39,VALID,0,
2016-04-12, 11:45:04,VALID,917.992,VALID,0,VALID,58.3573,VALID,811.073,VALID,27.5038,VALID,60,VALID,0.0339844,
2016-04-12, 11:46:04,VALID,917.988,VALID,0,VALID,60.9645,VALID,796.784,VALID,27.2498,VALID,34,VALID,1.53594,
2016-04-12, 11:47:04,VALID,917.923,VALID,0,VALID,60.2402,VALID,764.659,VALID,27.0523,VALID,11,VALID,2.41445,
2016-04-12, 11:48:04,VALID,917.933,VALID,0,VALID,62.512,VALID,749.939,VALID,26.8374,VALID,360,VALID,0.897656,
2016-04-12, 11:49:04,VALID,917.897,VALID,0,VALID,58.464,VALID,770.031,VALID,26.8765,VALID,357,VALID,0,
2016-04-12, 11:50:04,VALID,917.784,VALID,0,VALID,59.0357,VALID,811.61,VALID,26.9742,VALID,20,VALID,1.06484,
2016-04-12, 11:51:04,VALID,917.791,VALID,0,VALID,63.4802,VALID,718.029,VALID,26.857,VALID,3,VALID,0.0296875,
2016-04-12, 11:52:04,VALID,917.75,VALID,0,VALID,63.8614,VALID,826.115,VALID,26.9937,VALID,38,VALID,0,
2016-04-12, 11:53:04,VALID,917.779,VALID,0,VALID,61.0178,VALID,999.847,VALID,27.1695,VALID,318,VALID,0,
2016-04-12, 11:54:04,VALID,917.718,VALID,0,VALID,59.0052,VALID,1006.83,VALID,27.2868,VALID,27,VALID,1.67422,
2016-04-12, 11:55:04,VALID,917.748,VALID,0,VALID,60.8654,VALID,884.885,VALID,27.3454,VALID,329,VALID,0,
2016-04-12, 11:56:04,VALID,917.743,VALID,0,VALID,57.0384,VALID,809.462,VALID,27.5408,VALID,349,VALID,0.902344,
2016-04-12, 11:57:04,VALID,917.719,VALID,0,VALID,58.2048,VALID,811.61,VALID,27.3649,VALID,329,VALID,0,
2016-04-12, 11:58:04,VALID,917.669,VALID,0,VALID,62.1003,VALID,598.017,VALID,27.3454,VALID,346,VALID,0,
2016-04-12, 11:59:04,VALID,917.66,VALID,0,VALID,62.8779,VALID,796.354,VALID,27.2847,VALID,28,VALID,0.934375,
2016-04-12, 12:00:04,VALID,917.553,VALID,0,VALID,62.6721,VALID,893.695,VALID,27.187,VALID,60,VALID,1.06523,
2016-04-12, 12:01:04,VALID,917.584,VALID,0,VALID,57.877,VALID,895.2,VALID,27.2086,VALID,309,VALID,0,
2016-04-12, 12:02:04,VALID,917.549,VALID,0,VALID,59.3483,VALID,910.027,VALID,27.1479,VALID,225,VALID,1.05,
2016-04-12, 12:03:04,VALID,917.534,VALID,0,VALID,63.16,VALID,900.679,VALID,27.2086,VALID,303,VALID,0,